Regional Weather Roundup
Issued by NWS

Home | Current Version | Previous Version | Text Only | Print | Product List | Glossary On
Versions: 1 2 3 4 5 6 7 8 9 10 11 12 13 14 15 16 17 18 19 20 21 22 23 24 25 26 27 28 29 30 31 32 33 34 35 36 37 38 39 40 41 42 43 44 45 46 47 48 49 50
000
ASUS43 KMKX 291211
RWRWI

WISCONSIN REGIONAL WEATHER ROUNDUP
NATIONAL WEATHER SERVICE MILWAUKEE/SULLIVAN WI
700 AM CDT FRI APR 29 2016

NOTE: "FAIR" INDICATES FEW OR NO CLOUDS BELOW 12,000 FEET WITH NO
SIGNIFICANT WEATHER AND/OR OBSTRUCTIONS TO VISIBILITY.

WIZ001-002-006>008-014>016-023>028-291300-
NORTHWEST WISCONSIN

CITY           SKY/WX    TMP DP  RH WIND       PRES   REMARKS
SUPERIOR ARPT  CLEAR     30  29  97 CALM      30.20R
6HR MIN TEMP:  26; 6HR MAX TEMP:  30;

ASHLAND        SUNNY     30  29  96 CALM      30.18S
6HR MIN TEMP:  26; 6HR MAX TEMP:  30;

HAYWARD        CLOUDY    29  26  89 CALM      30.16S
6HR MIN TEMP:  26; 6HR MAX TEMP:  33;

SIREN          CLEAR     29  28  96 CALM      30.17S
6HR MIN TEMP:  27; 6HR MAX TEMP:  37;

CUMBERLAND     CLOUDY    32  28  86 N3        30.15S
RICE LAKE      CLOUDY    33  29  86 CALM      30.17R
6HR MIN TEMP:  33; 6HR MAX TEMP:  40;

CHETEK         CLOUDY    36  32  87 CALM      30.16R
6HR MIN TEMP:  36; 6HR MAX TEMP:  40;

LADYSMITH      CLOUDY    39  36  91 W5        30.16R
6HR MIN TEMP:  38; 6HR MAX TEMP:  41;

EAU CLAIRE     CLOUDY    40  38  93 CALM      30.14S
6HR MIN TEMP:  39; 6HR MAX TEMP:  40;

MENOMONIE      CLOUDY    39  39  99 CALM      30.16R
6HR MIN TEMP:  38; 6HR MAX TEMP:  39;

NEW RICHMOND   FOG       34  34 100 CALM      30.16S VSB 1/4
6HR MIN TEMP:  34; 6HR MAX TEMP:  38;

OSCEOLA        FOG       34  34 100 CALM      30.19S VSB 1/4
6HR MIN TEMP:  34; 6HR MAX TEMP:  39; 6HR PCP:  0.01;

$$

WIZ003>005-009-010-017-018-291300-
NORTH CENTRAL WISCONSIN

CITY           SKY/WX    TMP DP  RH WIND       PRES   REMARKS
MANITOWISH WTR CLOUDY    37  36  96 NW3       30.14R
6HR MIN TEMP:  35; 6HR MAX TEMP:  38;

ARBOR VITAE    CLOUDY    39  37  91 CALM      30.14R
6HR MIN TEMP:  37; 6HR MAX TEMP:  42;

WOODRUFF       CLOUDY    39  37  91 CALM      30.14R
6HR MIN TEMP:  37; 6HR MAX TEMP:  42;

RHINELANDER    CLOUDY    38  36  92 N3        30.13R
6HR MIN TEMP:  37; 6HR MAX TEMP:  38; 6HR PCP: TRACE;

EAGLE RIVER    CLOUDY    38  35  88 N6        30.13S WCI  34
LAND O LAKES   CLOUDY    38  34  84 CALM      30.15R
6HR MIN TEMP:  37; 6HR MAX TEMP:  40;

PHILLIPS       CLOUDY    38  35  90 CALM      30.13S
6HR MIN TEMP:  37; 6HR MAX TEMP:  40;

TOMAHAWK       CLOUDY    37  36  96 CALM      30.14R
6HR MIN TEMP:  35; 6HR MAX TEMP:  37;

MEDFORD        CLOUDY    36  36 100 CALM      30.13R
6HR MIN TEMP:  35; 6HR MAX TEMP:  37;

MERRILL        CLOUDY    37  37 100 CALM      30.14R
$$

WIZ029-030-035-036-043>047-291300-
CENTRAL WISCONSIN

CITY           SKY/WX    TMP DP  RH WIND       PRES   REMARKS
WAUSAU         CLOUDY    40  36  86 N6        30.12R
6HR MIN TEMP:  39; 6HR MAX TEMP:  40;

MOSINEE        CLOUDY    37  37 100 N7        30.13R WCI  32
MARSHFIELD     CLOUDY    39  35  86 N7        30.12R WCI  34
6HR MIN TEMP:  38; 6HR MAX TEMP:  39;

STEVENS POINT  CLOUDY    36  35  96 N6        30.13R WCI  31
6HR MIN TEMP:  35; 6HR MAX TEMP:  36;

WAUPACA        CLOUDY    41  36  83 N3        30.13R
6HR MIN TEMP:  40; 6HR MAX TEMP:  41;

WAUTOMA        NOT AVBL
WISC RAPIDS    CLOUDY    40  34  79 NE9       30.14R WCI  34
6HR MIN TEMP:  38; 6HR MAX TEMP:  40;

CAMP DOUGLAS   PTSUNNY   37  37 100 NW6       30.13R WCI  33
$$

WIZ011>013-019>022-031-037>040-048>050-291300-
NORTHEAST WISCONSIN

CITY           SKY/WX    TMP DP  RH WIND       PRES   REMARKS
ANTIGO         CLOUDY    37  36  96 N6        30.13R WCI  32
6HR MIN TEMP:  35; 6HR MAX TEMP:  37;

SHAWANO        CLOUDY    42  36  81 N6        30.14R
6HR MIN TEMP:  40; 6HR MAX TEMP:  42;

OCONTO         CLOUDY    41  32  69 N5        30.13R
6HR MIN TEMP:  39; 6HR MAX TEMP:  42;

STURGEON BAY   CLOUDY    39  32  75 NE5       30.14R
6HR MIN TEMP:  39; 6HR MAX TEMP:  41;

GREEN BAY      CLOUDY    41  34  76 N6        30.12R
6HR MIN TEMP:  41; 6HR MAX TEMP:  43; 6HR PCP: TRACE;

MANITOWOC      LGT RAIN  38  37  97 CALM      30.12R
6HR MIN TEMP:  38; 6HR MAX TEMP:  42; 6HR PCP:  0.02;

APPLETON       CLOUDY    39  34  81 N8        30.10R WCI  34
CLINTONVILLE   CLOUDY    37  34  87 CALM      30.13R
OSHKOSH        CLOUDY    41  35  79 N9        30.11R
6HR MIN TEMP:  41; 6HR MAX TEMP:  42;

$$

WIZ032>034-041-042-053>061-291300-
SOUTHWEST WISCONSIN

CITY           SKY/WX    TMP DP  RH WIND       PRES   REMARKS
LA CROSSE      CLOUDY    41  37  86 N7        30.15R
6HR MIN TEMP:  40; 6HR MAX TEMP:  41;

SPARTA         CLOUDY    38  38  97 CALM      30.16R
6HR MIN TEMP:  37; 6HR MAX TEMP:  38;

VIROQUA        CLOUDY    37  37 100 N5        30.13R WCI  33
6HR MIN TEMP:  36; 6HR MAX TEMP:  38;

BOSCOBEL       CLOUDY    41  37  86 VRB3      30.15R
6HR MIN TEMP:  41; 6HR MAX TEMP:  42; 6HR PCP: TRACE;

PRAIRIE DU CHI CLOUDY    41  36  82 NW5       30.14R
6HR MIN TEMP:  40; 6HR MAX TEMP:  42;

PLATTEVILLE    CLOUDY    40  39  95 N9        30.11S WCI  35
6HR MIN TEMP:  40; 6HR MAX TEMP:  40;

$$

WIZ056-057-062-063-064-067-068-291300-
SOUTH CENTRAL WISCONSIN

CITY           SKY/WX    TMP DP  RH WIND       PRES   REMARKS
REEDSBURG      CLOUDY    37  37  99 NW5       30.13R WCI  34
6HR MIN TEMP:  37; 6HR MAX TEMP:  38;

BARABOO/DELLS  CLOUDY    37  36  95 NW3       30.12R
6HR MIN TEMP:  37; 6HR MAX TEMP:  38; 6HR PCP:  0.01;

LONE ROCK      CLOUDY    40  36  86 W5        30.14R
6HR MIN TEMP:  40; 6HR MAX TEMP:  41; 6HR PCP:  0.01;

MINERAL POINT  CLOUDY    41  41 100 N6        30.11R FOG
MADISON        PTSUNNY   39  37  92 NW5       30.11R
6HR MIN TEMP:  38; 6HR MAX TEMP:  40; 6HR PCP:  0.08;

MIDDLETON      CLOUDY    40  38  91 N6        30.11R
6HR MIN TEMP:  40; 6HR MAX TEMP:  41; 6HR PCP:  0.05;

WATERTOWN      CLOUDY    39  38  98 NW3       30.10R
6HR MIN TEMP:  38; 6HR MAX TEMP:  39; 6HR PCP:  0.02;

MONROE         CLOUDY    39  37  93 N5        30.10R
JANESVILLE     CLOUDY    43  41  93 N5        30.09R
$$

WIZ051-052-058>065-066-070>072-291300-
SOUTHEAST WISCONSIN

CITY           SKY/WX    TMP DP  RH WIND       PRES   REMARKS
MILWAUKEE      CLOUDY    40  38  93 N6        30.09R
6HR MIN TEMP:  40; 6HR MAX TEMP:  41; 6HR PCP:  0.02;

WAUKESHA       CLOUDY    37  37 100 N5        30.10R WCI  34
MILWAUKEE/TIMM CLOUDY    37  36  93 N5        30.10R WCI  34
RACINE         CLOUDY    40  37  89 N9        30.10R WCI  34
6HR MIN TEMP:  40; 6HR MAX TEMP:  41; 6HR PCP:  0.01;

BURLINGTON     CLOUDY    39  38  95 N8        30.09R WCI  33
6HR MIN TEMP:  39; 6HR MAX TEMP:  39;

KENOSHA        CLOUDY    41  38  89 N7        30.09R
6HR MIN TEMP:  40; 6HR MAX TEMP:  41; 6HR PCP:  0.01;

FOND DU LAC    CLOUDY    41  38  89 N5        30.11R
6HR MIN TEMP:  39; 6HR MAX TEMP:  42; 6HR PCP:  0.01;

SHEBOYGAN      CLOUDY    39  35  86 N5        30.10R
6HR MIN TEMP:  39; 6HR MAX TEMP:  40; 6HR PCP:  0.01;

WEST BEND      CLOUDY    37  36  93 N5        30.09R WCI  34
JUNEAU         CLOUDY    38  37  93 NW6       30.10R WCI  34
6HR MIN TEMP:  37; 6HR MAX TEMP:  39;

$$

LSZ147-162-291300-
LAKE SUPERIOR

STATION/POSITION TIME  TEMP    WIND        PRES    WAVE
                       AIR SEA DIR/SP/G            HT/PER
                 (UTC) (F)     (DEG/KT/KT) (MB)    (FT/S)
W MID LAKE BUOY  1150   38 36   30/ 10/ 12 1022.8R   1
DEVILS ISLAND    1100   37      50/  5/  6 1022.7R
SAXON HARBOR     1100   31     190/  3/  7 1021.3R
$$

LMZ867-665-643>646-291300-
LAKE MICHIGAN

STATION/POSITION TIME  TEMP    WIND        PRES    WAVE
                       AIR SEA DIR/SP/G            HT/PER
                 (UTC) (F)     (DEG/KT/KT) (MB)    (FT/S)
CHAMBERS ISLAND  1100   40      10/ 12/ 13 1019.6R
N MID LAKE BUOY  1150   40 38  120/ 10/ 12 1020.5R   1
NORTHPORT PIER   1100   40     360/  6/  7 1019.6R
ALGOMA LAKESHORE 1145  C1F1C2F2C3F3C4F4C5F5C6F6C7F7C8M1C9M2Ca!


USA.gov is the U.S. government's official web portal to all federal, state and local government web resources and services.